ProjectID,Date,Electric Generation,Electric Utility Import,Facility Electric Load
,YYYY-MM-DD,kW,kW,kW
227,2014-11-01,-1.1787499999999997,194.29125,193.11249999999998
227,2014-11-02,-1.177916666666667,192.92375,191.74583333333334
227,2014-11-03,17.617083333333333,162.98166666666665,180.59875
227,2014-11-04,50.05416666666665,117.59125,167.64541666666665
227,2014-11-05,28.19458333333333,139.78833333333333,167.98291666666665
227,2014-11-06,54.05166666666667,124.31625000000001,178.36791666666667
227,2014-11-07,26.017916666666654,90.73833333333333,116.75624999999998
227,2014-11-08,21.026666666666667,10.62923076923077,31.655897435897437
227,2014-11-09,55.84708333333335,16.805416666666666,72.65250000000002
227,2014-11-10,30.46458333333332,26.520416666666666,56.984999999999985
227,2014-11-11,30.33125,13.342916666666667,43.674166666666665
227,2014-11-12,46.142500000000005,10.360833333333334,56.50333333333334
227,2014-11-13,48.6275,96.84791666666666,145.47541666666666
227,2014-11-14,60.09375000000001,121.94541666666667,182.0391666666667
227,2014-11-15,60.16291666666667,121.78500000000001,181.94791666666669
227,2014-11-16,60.181666666666665,130.41083333333333,190.5925
227,2014-11-17,58.959166666666654,127.56916666666666,186.5283333333333
227,2014-11-18,59.81958333333333,127.7075,187.52708333333334
227,2014-11-19,60.138750000000016,132.36708333333334,192.50583333333336
227,2014-11-20,59.710000000000015,128.82958333333332,188.53958333333333
227,2014-11-21,59.817916666666655,128.72666666666666,188.54458333333332
227,2014-11-22,59.92583333333332,129.29541666666668,189.22125
227,2014-11-23,46.69166666666666,138.05208333333334,184.74375
227,2014-11-24,-1.89375,178.97,177.07625
227,2014-11-25,-1.906666666666666,168.00416666666666,166.0975
227,2014-11-26,-1.8995833333333332,199.53875000000002,197.63916666666668
227,2014-11-27,-1.9054166666666659,193.84375,191.93833333333333
227,2014-11-28,-1.9091666666666665,189.28666666666666,187.3775
227,2014-11-29,-1.9162499999999998,191.43625,189.52
227,2014-11-30,-1.9070833333333326,189.7279166666667,187.82083333333335
227,2014-12-01,-1.9012499999999994,178.09208333333333,176.19083333333333
227,2014-12-02,-1.9116666666666662,194.35166666666666,192.44
227,2014-12-03,17.945,171.61208333333332,189.5570833333333
227,2014-12-04,59.37208333333334,125.61708333333333,184.98916666666668
227,2014-12-05,59.318749999999994,130.245,189.56375
227,2014-12-06,57.60583333333333,137.99208333333334,195.59791666666666
227,2014-12-07,60.27791666666668,133.95833333333334,194.23625
227,2014-12-08,60.32750000000001,141.82791666666665,202.15541666666667
227,2014-12-09,59.68375,141.1225,200.80625
227,2014-12-10,59.66458333333333,133.42583333333332,193.09041666666664
227,2014-12-11,60.41166666666667,132.80583333333334,193.2175
227,2014-12-12,58.39541666666667,128.15541666666667,186.55083333333334
227,2014-12-13,62.73208333333332,126.38625,189.11833333333334
227,2014-12-14,61.331666666666656,137.35708333333335,198.68875
227,2014-12-15,59.72541666666665,124.68458333333332,184.40999999999997
227,2014-12-16,60.57041666666666,123.56666666666666,184.13708333333332
227,2014-12-17,59.20291666666666,117.42708333333333,176.63
227,2014-12-18,61.14625,115.61958333333332,176.76583333333332
227,2014-12-19,59.18958333333333,126.93083333333334,186.12041666666667
227,2014-12-20,65.45,129.59375,195.04375
227,2014-12-21,64.8675,137.715,202.5825
227,2014-12-22,62.82666666666666,131.32041666666666,194.1470833333333
227,2014-12-23,60.650000000000006,122.78375,183.43375
227,2014-12-24,59.35166666666668,131.54999999999998,190.90166666666667
227,2014-12-25,58.22166666666667,120.14833333333333,178.37
227,2014-12-26,60.28833333333335,118.18624999999999,178.47458333333333
227,2014-12-27,59.40624999999999,113.88,173.28625
227,2014-12-28,59.13541666666666,123.245,182.38041666666666
227,2014-12-29,59.76333333333333,123.24624999999999,183.00958333333332
227,2014-12-30,65.87833333333332,125.14583333333333,191.02416666666664
227,2014-12-31,66.42875000000002,128.07125,194.5
227,2015-01-01,65.16041666666666,129.10208333333333,194.2625
227,2015-01-02,63.40666666666669,122.13416666666666,185.54083333333335
227,2015-01-03,64.23333333333336,130.59,194.82333333333338
227,2015-01-04,59.62041666666667,126.96749999999999,186.58791666666667
227,2015-01-05,64.14833333333335,121.63416666666666,185.78250000000003
227,2015-01-06,69.63958333333333,133.31875,202.95833333333331
227,2015-01-07,69.72125,138.16833333333332,207.88958333333332
227,2015-01-08,71.11125,149.18583333333333,220.29708333333332
227,2015-01-09,53.135416666666664,159.23666666666665,212.3720833333333
227,2015-01-10,70.52666666666669,143.31625,213.84291666666667
227,2015-01-11,67.95416666666667,139.12041666666667,207.07458333333335
227,2015-01-12,64.35708333333332,130.48291666666668,194.84
227,2015-01-13,68.51624999999999,129.62625,198.14249999999998
227,2015-01-14,68.60499999999999,130.58458333333334,199.18958333333333
227,2015-01-15,66.54416666666664,128.13375,194.67791666666665
227,2015-01-16,65.73333333333333,130.22166666666666,195.95499999999998
227,2015-01-17,69.02125,130.90333333333334,199.92458333333332
227,2015-01-18,63.92333333333334,138.8725,202.79583333333335
227,2015-01-19,62.80916666666668,131.38791666666665,194.19708333333332
227,2015-01-20,63.45458333333334,126.29166666666667,189.74625
227,2015-01-21,46.51416666666665,147.22125,193.73541666666665
227,2015-01-22,24.507500000000004,158.43083333333334,182.93833333333333
227,2015-01-23,65.60416666666666,122.96458333333334,188.56875
227,2015-01-24,64.10625,131.76041666666666,195.86666666666667
227,2015-01-25,63.83291666666667,126.37,190.20291666666668
227,2015-01-26,68.14208333333333,142.32375,210.4658333333333
227,2015-01-27,69.27916666666665,151.32416666666668,220.60333333333335
227,2015-01-28,69.05291666666666,129.39875,198.45166666666665
227,2015-01-29,65.72499999999998,130.55958333333334,196.28458333333333
227,2015-01-30,66.48083333333335,125.02458333333334,191.5054166666667
227,2015-01-31,70.69166666666666,128.10416666666666,198.79583333333332
227,2015-02-01,67.18541666666668,136.08083333333335,203.26625
227,2015-02-02,67.64166666666668,138.25666666666666,205.89833333333334
227,2015-02-03,70.40249999999999,132.95166666666668,203.35416666666669
227,2015-02-04,66.63166666666667,124.0,190.63166666666666
227,2015-02-05,66.68500000000002,131.53666666666666,198.2216666666667
227,2015-02-06,53.70624999999999,150.55333333333334,204.25958333333332
227,2015-02-07,66.37624999999998,138.69,205.06624999999997
227,2015-02-08,65.07874999999999,141.07041666666666,206.14916666666664
227,2015-02-09,68.10541666666667,141.21375,209.31916666666666
227,2015-02-10,66.89833333333333,131.04416666666665,197.9425
227,2015-02-11,67.63875,129.17958333333334,196.81833333333333
227,2015-02-12,60.86333333333334,131.96875,192.83208333333334
227,2015-02-13,11.163749999999999,192.95083333333332,204.11458333333331
227,2015-02-14,47.846250000000005,156.29416666666665,204.14041666666665
227,2015-02-15,6.139166666666667,196.64583333333334,202.785
227,2015-02-16,-1.948333333333334,223.34916666666666,221.40083333333334
227,2015-02-17,30.772916666666674,165.48666666666665,196.25958333333332
227,2015-02-18,69.13583333333332,129.13833333333335,198.27416666666667
227,2015-02-19,70.31999999999998,132.33541666666667,202.65541666666667
227,2015-02-20,71.27499999999999,142.15916666666666,213.43416666666667
227,2015-02-21,69.72916666666666,146.84625,216.57541666666665
227,2015-02-22,65.36291666666666,140.71875,206.08166666666665
227,2015-02-23,69.39875000000002,136.43458333333334,205.83333333333337
227,2015-02-24,70.63791666666667,143.35666666666665,213.9945833333333
227,2015-02-25,67.45666666666666,131.72916666666666,199.18583333333333
227,2015-02-26,65.78916666666666,137.91166666666666,203.70083333333332
227,2015-02-27,64.03875,130.71875,194.7575
227,2015-02-28,41.934999999999995,173.64833333333334,215.58333333333334
227,2015-03-01,68.38833333333332,149.76041666666666,218.14874999999998
227,2015-03-02,65.52125,130.57583333333335,196.09708333333333
227,2015-03-03,62.32375,138.26541666666665,200.58916666666664
227,2015-03-04,32.441250000000004,155.81,188.25125
227,2015-03-05,47.272083333333335,151.41166666666666,198.68375
227,2015-03-06,41.39791666666665,156.30166666666665,197.6995833333333
227,2015-03-07,41.83958333333333,157.03416666666666,198.87375
227,2015-03-08,63.44958333333332,123.6875,187.13708333333332
227,2015-03-09,40.49249999999999,136.40125,176.89375
227,2015-03-10,45.56041666666666,127.04416666666667,172.60458333333332
227,2015-03-11,40.72125,125.3125,166.03375
227,2015-03-12,49.37291666666666,121.45333333333333,170.82625
227,2015-03-13,43.213750000000005,133.43208333333334,176.64583333333334
227,2015-03-14,5.47666666666667,174.08624999999998,179.56291666666664
227,2015-03-15,-1.88,187.21333333333334,185.33333333333334
227,2015-03-16,24.69583333333333,154.34916666666666,179.045
227,2015-03-17,20.09625,150.83041666666665,170.92666666666665
227,2015-03-18,20.42791666666667,166.70833333333334,187.13625000000002
227,2015-03-19,34.530416666666675,149.81,184.34041666666667
227,2015-03-20,34.55833333333333,158.695,193.25333333333333
227,2015-03-21,34.69875,152.09666666666666,186.79541666666665
227,2015-03-22,34.690000000000005,153.95541666666665,188.64541666666665
227,2015-03-23,34.665,156.92458333333335,191.58958333333334
227,2015-03-24,34.72375,153.19541666666666,187.91916666666665
227,2015-03-25,39.34041666666666,142.82541666666665,182.16583333333332
227,2015-03-26,53.793333333333344,124.1825,177.97583333333336
227,2015-03-27,55.134166666666665,122.51791666666666,177.65208333333334
227,2015-03-28,55.210416666666674,136.57583333333335,191.78625000000002
227,2015-03-29,55.13458333333333,139.55958333333334,194.69416666666666
227,2015-03-30,56.479166666666664,130.10708333333335,186.58625
227,2015-03-31,59.12499999999999,122.55458333333333,181.6795833333333
227,2015-04-01,59.1025,119.04416666666667,178.14666666666668
227,2015-04-02,58.520833333333314,113.75541666666668,172.27625
227,2015-04-03,3.5808333333333326,169.10125,172.68208333333334
227,2015-04-04,31.989166666666666,138.9375,170.92666666666668
227,2015-04-05,59.31666666666666,110.96375,170.28041666666667
227,2015-04-06,51.09041666666667,110.30708333333332,161.39749999999998
227,2015-04-07,51.123333333333335,113.98708333333333,165.11041666666665
227,2015-04-08,57.64791666666667,112.65625,170.30416666666667
227,2015-04-09,59.151666666666664,123.89583333333333,183.04749999999999
227,2015-04-10,59.11083333333334,117.02083333333333,176.13166666666666
227,2015-04-11,51.580000000000005,111.3775,162.9575
227,2015-04-12,57.350833333333334,108.9925,166.34333333333333
227,2015-04-13,56.384166666666665,106.64041666666667,163.02458333333334
227,2015-04-14,55.75333333333333,107.14333333333333,162.89666666666665
227,2015-04-15,35.31333333333334,120.98166666666667,156.29500000000002
227,2015-04-16,47.75416666666666,109.8125,157.56666666666666
227,2015-04-17,34.96083333333333,125.83083333333333,160.79166666666666
227,2015-04-18,3.9125,151.58333333333334,155.49583333333334
227,2015-04-19,43.55124999999999,116.22125,159.77249999999998
227,2015-04-20,61.93666666666666,107.59375,169.53041666666667
227,2015-04-21,53.39833333333335,102.86208333333333,156.26041666666669
227,2015-04-22,56.307916666666664,102.86708333333333,159.17499999999998
227,2015-04-23,58.260833333333345,108.09916666666668,166.36
227,2015-04-24,63.81041666666667,106.48166666666667,170.29208333333332
227,2015-04-25,65.92583333333333,100.25,166.17583333333334
227,2015-04-26,58.49041666666665,106.20291666666667,164.69333333333333
227,2015-04-27,55.23666666666666,103.9325,159.16916666666665
227,2015-04-28,54.98958333333332,89.47125,144.4608333333333
227,2015-04-29,20.76875,108.00791666666667,128.77666666666667
227,2015-04-30,28.273750000000003,110.0625,138.33625
227,2015-05-01,54.54291666666666,105.45833333333333,160.00125
227,2015-05-02,53.908750000000005,104.77083333333333,158.67958333333334
227,2015-05-03,52.90458333333334,102.98416666666667,155.88875000000002
227,2015-05-04,50.870000000000005,87.995,138.865
227,2015-05-05,32.056666666666665,98.03625,130.09291666666667
227,2015-05-06,55.59166666666666,74.95083333333334,130.5425
227,2015-05-07,4.035833333333335,128.67416666666665,132.70999999999998
227,2015-05-08,44.66708333333332,84.29708333333333,128.96416666666664
227,2015-05-09,53.48374999999999,80.79166666666667,134.27541666666667
227,2015-05-10,23.931249999999995,122.3175,146.24875
227,2015-05-11,11.122500000000004,138.28125,149.40375
227,2015-05-12,7.712500000000001,136.85166666666666,144.56416666666667
227,2015-05-13,-1.8899999999999997,138.64833333333334,136.75833333333335
227,2015-05-14,-1.88,133.5,131.62
227,2015-05-15,1.9712499999999997,131.5625,133.53375
227,2015-05-16,3.1995833333333334,136.90916666666666,140.10875
227,2015-05-17,6.053333333333331,134.55958333333334,140.61291666666668
227,2015-05-18,10.850000000000001,132.14083333333335,142.99083333333334
227,2015-05-19,6.214166666666664,133.0675,139.28166666666667
227,2015-05-20,6.121249999999999,128.34666666666666,134.46791666666667
227,2015-05-21,4.960833333333333,136.28375,141.24458333333334
227,2015-05-22,7.508749999999999,129.565,137.07375
227,2015-05-23,39.53416666666666,95.85166666666667,135.38583333333332
227,2015-05-24,45.48499999999999,86.42708333333333,131.91208333333333
227,2015-05-25,46.2775,97.77333333333333,144.05083333333334
227,2015-05-26,18.809583333333343,128.7475,147.55708333333334
227,2015-05-27,-2.077083333333333,197.10666666666668,195.02958333333336
227,2015-05-28,17.16,205.75250000000003,222.91250000000002
227,2015-05-29,-0.34125,224.71124999999998,224.36999999999998
227,2015-05-30,32.404166666666676,195.49458333333334,227.89875
227,2015-05-31,38.21666666666667,196.23958333333334,234.45625
227,2015-06-01,37.806666666666665,177.22416666666666,215.03083333333333
227,2015-06-02,15.452083333333334,198.86916666666664,214.32124999999996
227,2015-06-03,32.75458333333333,170.185,202.93958333333333
227,2015-06-04,-1.3608333333333336,207.6875,206.32666666666665
227,2015-06-05,20.237499999999997,189.45833333333334,209.69583333333333
227,2015-06-06,37.26208333333333,171.16416666666666,208.42624999999998
227,2015-06-07,-1.3570833333333334,210.85416666666666,209.49708333333334
227,2015-06-08,-1.3579166666666669,212.79958333333332,211.44166666666666
227,2015-06-09,14.255541666666666,207.80708333333334,222.062625
227,2015-06-10,38.00054166666666,178.39583333333334,216.396375
227,2015-06-11,38.283833333333334,196.0625,234.34633333333335
227,2015-06-12,37.23425000000001,207.53125,244.7655
227,2015-06-13,38.27833333333333,208.71875,246.99708333333334
227,2015-06-14,38.57704166666667,206.01541666666665,244.59245833333333
227,2015-06-15,37.525375000000004,209.17458333333332,246.6999583333333
227,2015-06-16,38.26258333333334,195.73416666666665,233.99675
227,2015-06-17,33.713833333333326,197.07291666666666,230.78674999999998
227,2015-06-18,0.0,229.65625,229.65625
227,2015-06-19,12.948166666666665,222.45333333333335,235.4015
227,2015-06-20,0.0,239.53916666666666,239.53916666666666
227,2015-06-21,0.0,250.51791666666668,250.51791666666668
227,2015-06-22,0.0,246.6475,246.6475
227,2015-06-23,0.0,266.4166666666667,266.4166666666667
227,2015-06-24,0.0,243.63750000000002,243.63750000000002
227,2015-06-25,10.483749999999999,226.39583333333334,236.87958333333333
227,2015-06-26,11.533041666666664,224.52083333333334,236.053875
227,2015-06-27,0.0,232.60833333333335,232.60833333333335
227,2015-06-28,0.0,229.57083333333333,229.57083333333333
227,2015-06-29,0.0,223.9958333333333,223.9958333333333
227,2015-06-30,19.431749999999997,211.38750000000002,230.81925
227,2015-07-01,25.85716666666667,209.04583333333335,234.90300000000002
227,2015-07-02,0.0525,232.775,232.82750000000001
227,2015-07-03,0.0,230.58333333333334,230.58333333333334
227,2015-07-04,0.0,228.24166666666667,228.24166666666667
227,2015-07-05,0.0,236.54999999999998,236.54999999999998
227,2015-07-06,1.6037916666666667,243.14166666666665,244.74545833333332
227,2015-07-07,2.221,257.0125,259.2335
227,2015-07-08,18.166124999999997,244.09583333333333,262.2619583333333
227,2015-07-09,11.87675,240.60416666666666,252.48091666666664
227,2015-07-10,25.09704166666667,217.61249999999998,242.70954166666667
227,2015-07-11,7.452916666666667,233.0875,240.54041666666666
227,2015-07-12,2.6064166666666666,250.8375,253.44391666666667
227,2015-07-13,29.679666666666666,217.89083333333335,247.5705
227,2015-07-14,32.05708333333334,221.53625,253.59333333333333
227,2015-07-15,17.64625,233.66166666666666,251.30791666666667
227,2015-07-16,38.170625,190.49458333333334,228.66520833333334
227,2015-07-17,56.97179166666666,171.46875,228.44054166666666
227,2015-07-18,62.007291666666674,186.79166666666666,248.79895833333333
227,2015-07-19,61.510916666666674,207.84916666666666,269.36008333333336
227,2015-07-20,34.144375,241.20833333333334,275.35270833333334
227,2015-07-21,24.41745833333333,241.46333333333334,265.88079166666665
227,2015-07-22,52.60279166666667,189.8075,242.41029166666667
227,2015-07-23,61.699666666666666,171.68208333333334,233.38175
227,2015-07-24,62.11133333333333,174.50541666666666,236.61675
227,2015-07-25,61.85895833333333,180.66125,242.52020833333333
227,2015-07-26,31.61708333333333,220.41666666666666,252.03375
227,2015-07-27,43.85754166666667,208.90125,252.75879166666667
227,2015-07-28,30.108500000000003,234.04166666666666,264.1501666666667
227,2015-07-29,24.780291666666667,246.0625,270.84279166666664
227,2015-07-30,42.50020833333333,237.55708333333334,280.0572916666667
227,2015-07-31,53.04320833333335,200.83875,253.88195833333336
227,2015-08-01,35.24820833333333,218.67708333333334,253.92529166666668
227,2015-08-02,65.97120833333334,187.66666666666666,253.637875
227,2015-08-03,50.06958333333333,207.76541666666665,257.835
227,2015-08-04,32.02733333333334,223.1875,255.21483333333333
227,2015-08-05,27.481916666666667,220.31791666666666,247.79983333333334
227,2015-08-06,47.89283333333333,192.21875,240.11158333333333
227,2015-08-07,21.411083333333334,219.67166666666665,241.08274999999998
227,2015-08-08,10.595374999999999,229.86458333333334,240.45995833333333
227,2015-08-09,18.941958333333336,223.51041666666666,242.452375
227,2015-08-10,48.69958333333333,190.245,238.94458333333333
227,2015-08-11,40.50175000000001,208.36958333333334,248.87133333333335
227,2015-08-12,45.33195833333332,194.58333333333334,239.91529166666666
227,2015-08-13,54.82316666666667,179.89083333333335,234.71400000000003
227,2015-08-14,34.41975,200.92166666666665,235.34141666666665
227,2015-08-15,54.812083333333334,193.33333333333334,248.14541666666668
227,2015-08-16,62.494375,197.31791666666666,259.8122916666667
227,2015-08-17,24.797250000000002,241.44791666666666,266.24516666666665
227,2015-08-18,0.0,268.3125,268.3125
227,2015-08-19,35.985958333333336,232.23958333333334,268.2255416666667
227,2015-08-20,28.365374999999997,240.71333333333334,269.07870833333334
227,2015-08-21,49.39716666666667,202.44291666666666,251.84008333333333
227,2015-08-22,64.30075000000001,175.42166666666665,239.72241666666667
227,2015-08-23,64.01758333333333,186.27083333333334,250.28841666666668
227,2015-08-24,64.21295833333333,183.38041666666666,247.59337499999998
227,2015-08-25,32.112833333333334,221.32291666666666,253.43574999999998
227,2015-08-26,46.46025,194.13,240.59025
227,2015-08-27,54.721833333333336,177.41666666666666,232.1385
227,2015-08-28,54.28899999999999,174.25,228.539
227,2015-08-29,52.9415,182.23458333333335,235.17608333333334
227,2015-08-30,32.777625,218.85916666666665,251.63679166666665
227,2015-08-31,22.70675,231.12,253.82675
227,2015-09-01,42.55258333333334,211.875,254.42758333333333
227,2015-09-02,33.23920833333333,225.92166666666665,259.160875
227,2015-09-03,35.922333333333334,222.16666666666666,258.089
227,2015-09-04,42.946333333333335,212.88041666666666,255.82675
227,2015-09-05,22.615291666666668,220.26041666666666,242.87570833333334
227,2015-09-06,40.371208333333335,199.03125,239.40245833333333
227,2015-09-07,53.09579166666666,199.21875,252.31454166666666
227,2015-09-08,33.70012499999999,221.625,255.32512499999999
227,2015-09-09,40.55279166666667,221.64041666666665,262.1932083333333
227,2015-09-10,52.14362499999999,199.22916666666666,251.37279166666664
227,2015-09-11,55.326374999999985,179.65125,234.977625
227,2015-09-12,53.988416666666666,186.98416666666665,240.97258333333332
227,2015-09-13,8.059000000000001,230.60958333333335,238.66858333333334
227,2015-09-14,0.0,219.70833333333334,219.70833333333334
227,2015-09-15,0.0,221.24458333333334,221.24458333333334
227,2015-09-16,1.5417500000000002,220.8075,222.34925
227,2015-09-17,23.783250000000006,207.40625,231.1895
227,2015-09-18,53.41862500000001,177.17166666666665,230.59029166666667
227,2015-09-19,54.16524999999999,182.11458333333334,236.27983333333333
227,2015-09-20,55.76387500000001,176.27083333333334,232.03470833333336
227,2015-09-21,55.63999999999999,154.98458333333335,210.62458333333333
227,2015-09-22,55.618458333333336,156.29166666666666,211.910125
227,2015-09-23,55.608083333333326,153.65625,209.26433333333333
227,2015-09-24,56.73091666666665,153.84875,210.57966666666664
227,2015-09-25,30.76374999999999,181.90125,212.665
227,2015-09-26,48.10741666666666,157.98416666666665,206.09158333333332
227,2015-09-27,56.77670833333334,153.03125,209.80795833333335
227,2015-09-28,56.10879166666668,162.48458333333335,218.59337500000004
227,2015-09-29,56.403916666666674,175.41666666666666,231.82058333333333
227,2015-09-30,55.531749999999995,175.39583333333334,230.92758333333333
227,2015-10-01,47.82170833333333,161.375,209.19670833333333
227,2015-10-02,31.067958333333337,178.95291666666665,210.020875
227,2015-10-03,58.33154166666667,161.97916666666666,220.31070833333334
227,2015-10-04,15.863541666666665,182.98458333333335,198.848125
227,2015-10-05,0.0,178.90625,178.90625
227,2015-10-06,0.0,163.57291666666666,163.57291666666666
227,2015-10-07,0.0,143.125,143.125
227,2015-10-08,0.0,140.78625,140.78625
227,2015-10-09,26.65070833333333,116.88541666666667,143.536125
227,2015-10-10,61.91595833333335,87.08875,149.00470833333335
227,2015-10-11,61.712250000000004,107.41666666666667,169.12891666666667
227,2015-10-12,61.15554166666666,105.57791666666667,166.73345833333332
227,2015-10-13,61.26200000000001,101.72416666666668,162.9861666666667
227,2015-10-14,62.37216666666668,96.35416666666667,158.72633333333334
227,2015-10-15,37.95075,112.75,150.70075
227,2015-10-16,32.931000000000004,130.15083333333334,163.08183333333335
227,2015-10-17,61.10133333333332,108.1875,169.28883333333332
227,2015-10-18,61.86529166666667,120.8075,182.67279166666668
227,2015-10-19,61.18929166666668,116.80208333333333,177.991375
227,2015-10-20,61.59304166666667,97.78625,159.37929166666666
227,2015-10-21,59.84245833333333,74.23458333333333,134.07704166666667
227,2015-10-22,58.991874999999986,77.6925,136.684375
227,2015-10-23,15.524833333333332,142.02083333333334,157.54566666666668
227,2015-10-24,39.15220833333334,141.745,180.89720833333334
227,2015-10-25,61.18283333333333,116.23416666666667,177.417
227,2015-10-26,60.294999999999995,107.97916666666667,168.27416666666667
227,2015-10-27,60.005874999999996,106.92708333333333,166.93295833333332
227,2015-10-28,59.861124999999994,114.6825,174.543625
227,2015-10-29,60.44112499999999,103.63541666666667,164.07654166666666
227,2015-10-30,60.11470833333334,102.60416666666667,162.71887500000003
227,2015-10-31,60.9588333333333,110.42708333333333,171.38591666666662
227,2015-11-01,60.52370833333334,112.61958333333332,173.14329166666667
227,2015-11-02,59.94416666666667,108.3125,168.25666666666666